Macugnaga, Italy 16 day weather forecast

Slopes altitude range 1325 m - 3000m

Number of lifts: 9 Pistes: 38km

In some cases the lift and piste totals shown are for the ski domain (e.g. Three Valleys) rather than individual resort (e.g. Courchevel)

Overview

The 16 day weather forecast is fully updated 4 times every day.

    • Thu 17 JAN 2019
    • Thu 17
    • -6C -4C
    • Fri 18 JAN 2019
    • Fri 18
    • -15C -7C
    • Sat 19 JAN 2019
    • Sat 19
    • -11C -9C
    • Sun 20 JAN 2019
    • Sun 20
    • -14C -8C
    • Mon 21 JAN 2019
    • Mon 21
    • -14C -8C
    • Tue 22 JAN 2019
    • Tue 22
    • -15C -8C
    • Wed 23 JAN 2019
    • Wed 23
    • -13C -9C
    • Thu 24 JAN 2019
    • Thu 24
    • -11C -4C
    • Fri 25 JAN 2019
    • Fri 25
    • -12C -7C
    • Sat 26 JAN 2019
    • Sat 26
    • -17C -8C
    • Sun 27 JAN 2019
    • Sun 27
    • -14C -11C
    • Mon 28 JAN 2019
    • Mon 28
    • -10C -8C
    • Tue 29 JAN 2019
    • Tue 29
    • -15C -8C
    • Wed 30 JAN 2019
    • Wed 30
    • -13C -7C
    • Thu 31 JAN 2019
    • Thu 31
    • -13C -8C
    • Fri 01 FEB 2019
    • Fri 01
    • -15C -9C

Date:

Time Type 0°C level Temp Chill Snow Cloud Speed Gust Dir Press
18:00 1357m -4°C -4_3 2cm 98% 3mph 2mph 1013mB
21:00 1110m -8°C -8_8 1cm 97% 8mph 8mph 1014mB
0:00 625m -11°C -11_10 1cm 87% 10mph 11mph 1015mB
3:00 101m -14°C -14_11 0cm 26% 11mph 11mph 1016mB
6:00 43m -15°C -15_11 0cm 18% 11mph 11mph 1017mB
9:00 583m -15°C -15_9 0cm 73% 9mph 9mph 1017mB
12:00 1155m -7°C -7_3 0cm 84% 3mph 2mph 1016mB
15:00 886m -7°C -7_4 0cm 95% 4mph 4mph 1016mB
18:00 133m -7°C -7_6 0cm 94% 6mph 7mph 1019mB
21:00 607m -14°C -14_5 1cm 97% 5mph 6mph 1020mB
0:00 753m -14°C -14_4 1cm 98% 4mph 5mph 1020mB
3:00 704m -10°C -10_4 1cm 99% 4mph 4mph 1019mB
6:00 654m -11°C -11_4 1cm 99% 4mph 5mph 1018mB
9:00 772m -11°C -11_5 1cm 99% 5mph 5mph 1018mB
12:00 928m -9°C -9_5 1cm 98% 5mph 4mph 1016mB
15:00 880m -9°C -9_3 1cm 96% 3mph 3mph 1015mB
18:00 347m -9°C -9_4 1cm 92% 4mph 4mph 1016mB
21:00 150m -14°C -14_4 0cm 65% 4mph 5mph 1017mB
0:00 100m -14°C -14_5 0cm 74% 5mph 5mph 1016mB
3:00 83m -14°C -14_5 0cm 95% 5mph 5mph 1016mB
6:00 48m -15°C -15_6 0cm 95% 6mph 6mph 1016mB
9:00 796m -14°C -14_2 0cm 96% 2mph 2mph 1016mB
12:00 980m -8°C -8_1 1cm 97% 1mph 2mph 1015mB
15:00 1069m -8°C -8_2 1cm 100% 2mph 3mph 1015mB
18:00 626m -8°C -8_5 1cm 98% 5mph 5mph 1017mB
21:00 424m -12°C -12_6 1cm 95% 6mph 6mph 1019mB
0:00 414m -12°C -12_5 1cm 95% 5mph 6mph 1020mB
3:00 319m -13°C -13_5 1cm 96% 5mph 5mph 1020mB
6:00 215m -13°C -13_6 1cm 96% 6mph 6mph 1021mB
9:00 767m -14°C -14_3 1cm 91% 3mph 4mph 1022mB
12:00 1097m -8°C -8_4 1cm 69% 4mph 3mph 1020mB
15:00 1056m -7°C -7_3 1cm 45% 3mph 3mph 1020mB
18:00 446m -7°C -7_5 1cm 48% 5mph 5mph 1021mB
21:00 194m -14°C -14_5 0cm 26% 5mph 5mph 1022mB
0:00 180m -14°C -14_5 0cm 13% 5mph 5mph 1020mB
3:00 124m -14°C -14_5 0cm 0% 5mph 6mph 1018mB
6:00 59m -15°C -15_6 0cm 0% 6mph 6mph 1015mB
9:00 764m -15°C -15_3 0cm 0% 3mph 4mph 1012mB
12:00 1088m -8°C -8_5 0cm 1% 5mph 5mph 1008mB
15:00 748m -8°C -8_4 0cm 0% 4mph 4mph 1004mB
18:00 31m -8°C -8_4 0cm 14% 4mph 4mph 1005mB
21:00 23m -16°C -16_4 0cm 29% 4mph 4mph 1004mB
0:00 20m -16°C -16_4 0cm 54% 4mph 5mph 1003mB
3:00 133m -16°C -16_4 0cm 95% 4mph 4mph 1002mB
6:00 334m -16°C -16_4 1cm 97% 4mph 4mph 1001mB
9:00 615m -13°C -13_3 1cm 99% 3mph 3mph 1001mB
12:00 833m -9°C -9_4 1cm 99% 4mph 4mph 999mB
15:00 892m -9°C -9_5 1cm 94% 5mph 6mph 998mB
18:00 716m -9°C -9_4 1cm 96% 4mph 5mph 999mB
21:00 659m -11°C -11_4 1cm 99% 4mph 5mph 999mB
0:00 685m -11°C -11_4 1cm 99% 4mph 6mph 999mB
3:00 712m -11°C -11_3 2cm 98% 3mph 5mph 999mB
6:00 740m -11°C -11_1 1cm 98% 1mph 2mph 1000mB
9:00 1169m -11°C -11_2 1cm 93% 2mph 2mph 1001mB
12:00 1604m -4°C -4_3 1cm 92% 3mph 4mph 1000mB
15:00 1384m -4°C -4_3 1cm 88% 3mph 4mph 1001mB
18:00 731m -4°C -4_4 1cm 86% 4mph 4mph 1005mB
21:00 600m -11°C -11_6 0cm 64% 6mph 6mph 1007mB
0:00 626m -11°C -11_5 0cm 71% 5mph 5mph 1009mB
3:00 509m -11°C -11_3 0cm 93% 3mph 4mph 1010mB
6:00 401m -12°C -12_3 0cm 93% 3mph 3mph 1012mB
9:00 920m -12°C -12_1 1cm 89% 1mph 1mph 1014mB
12:00 1180m -7°C -7_4 1cm 67% 4mph 3mph 1013mB
15:00 1172m -7°C -7_2 1cm 81% 2mph 2mph 1013mB
18:00 491m -7°C -7_6 1cm 67% 6mph 6mph 1016mB
21:00 158m -14°C -14_6 0cm 82% 6mph 6mph 1018mB
0:00 30m -15°C -15_6 0cm 70% 6mph 6mph 1019mB
3:00 0m -16°C -16_7 0cm 13% 7mph 8mph 1019mB
6:00 0m -17°C -17_9 0cm 7% 9mph 9mph 1019mB
9:00 422m -17°C -17_6 0cm 0% 6mph 7mph 1019mB
12:00 982m -8°C -8_4 0cm 0% 4mph 6mph 1017mB
15:00 911m -8°C -8_4 0cm 0% 4mph 5mph 1016mB
18:00 120m -8°C -8_8 0cm 4% 8mph 8mph 1018mB
21:00 110m -14°C -14_6 0cm 92% 6mph 6mph 1017mB
0:00 147m -14°C -14_4 0cm 94% 4mph 5mph 1015mB
3:00 194m -14°C -14_4 0cm 99% 4mph 4mph 1013mB
6:00 171m -14°C -14_4 1cm 99% 4mph 4mph 1011mB
9:00 440m -14°C -14_2 1cm 98% 2mph 3mph 1010mB
12:00 613m -11°C -11_1 1cm 98% 1mph 3mph 1007mB
Morning 0.630208mm 0 563m -9°C -9_3 5cm 99% 3mph 5mph 999mB
Afternoon 0.520833mm 0 638m -8°C -8_5 4cm 100% 5mph 9mph 995mB
Morning 0.21875mm 0.25 4m -15°C -15_9 2cm 94% 9mph 12mph 1000mB
Afternoon 0.109375mm 0 603m -8°C -8_6 1cm 83% 6mph 7mph 994mB
Morning 0.838542mm 0 89m -13°C -13_5 7cm 100% 5mph 9mph 986mB
Afternoon 0.380208mm 0 752m -7°C -7_3 3cm 98% 3mph 3mph 988mB
Morning 0.333333mm 0 379m -10°C -10_10 3cm 97% 10mph 16mph 996mB
Afternoon 0.0572917mm 0 723m -8°C -8_9 0cm 70% 9mph 12mph 1001mB
Morning 0.0677083mm 0 0m -14°C -14_10 1cm 69% 10mph 15mph 1006mB
Afternoon 0.0364583mm 0 524m -9°C -9_6 0cm 88% 6mph 8mph 1004mB
Morning 0.0885417mm 0 0m -15°C -15_5 1cm 90% 5mph 6mph 1006mB
Afternoon 0.0364583mm 0 364m -10°C -10_0 0cm 89% 0mph 1mph 1005mB

16 day outlook at a glance

Forecast issued: 17/01/2019 23:01:10

Chat

Your comments and questions. In a resort? Let us know what it's like!


Characters left 250

For terms and conditions see Readers Comments on the Cookie and privacy policy page.